Weather History for Sidney-Richland, MT

Change the Weather History Date:

Tuesday, February 5, 2013

  Actual Average Record
Temperature  
Mean Temperature 28 °F -  
Max Temperature 35 °F 27 °F 59 °F (1963)
Min Temperature 21 °F 5 °F -28 °F (1982)
Degree Days  
Heating Degree Days 37    
Moisture  
Dew Point 24 °F    
Average Humidity 77    
Maximum Humidity 93    
Minimum Humidity 64    
Precipitation  
Precipitation 0.00 in - - ()
Sea Level Pressure  
Sea Level Pressure 29.88 in    
Wind  
Wind Speed 11 mph (SW)    
Max Wind Speed 18 mph    
Max Gust Speed 24 mph    
Visibility 10 miles    
Events      
Averages and records for this station are not official NWS values.
T = Trace of Precipitation, MM = Missing Value Source: NWS Daily Summary

Daily Weather History Graph

Daily Weather History Graph

Search for Another Location

Airport:

Trip Planner

Search our weather history database for the weather conditions in past years. The results will help you decide how hot, cold, wet, or windy it might be!

Date:

Astronomy

Feb. 05, 2013 Rise Set
Actual Time 7:17 AM MST 5:04 PM MST
Civil Twilight 6:45 AM MST 5:37 PM MST
Nautical Twilight 6:08 AM MST 6:13 PM MST
Astronomical Twilight 5:32 AM MST 6:49 PM MST
Moon 3:10 AM MST (2/5) 12:15 PM MST (2/5)
Length of Visible Light 10h 52m
Length of Day
9h 46m
Waning Crescent, 26% of the Moon is Illuminated
Feb 5
Waning Crescent
Feb 10
New
Feb 17
First Quarter
Feb 25
Full
Mar 4
Last Quarter

Hourly Weather History & Observations

Time (MST) Temp. Windchill Dew Point Humidity Pressure Visibility Wind Dir Wind Speed Gust Speed Precip Events Conditions
12:15 AM 32.0 °F 20.8 °F 24.8 °F 75% 29.82 in 10.0 mi WNW 17.3 mph - N/A   Clear
12:35 AM 30.2 °F 19.3 °F 23.0 °F 75% 29.82 in 10.0 mi WNW 15.0 mph - N/A   Mostly Cloudy
1:15 AM 30.2 °F 18.9 °F 23.0 °F 75% 29.84 in 10.0 mi WNW 16.1 mph - N/A   Clear
1:35 AM 30.2 °F 18.5 °F 23.0 °F 75% 29.85 in 10.0 mi WNW 17.3 mph - N/A   Clear
1:55 AM 30.2 °F 18.1 °F 23.0 °F 75% 29.86 in 10.0 mi WNW 18.4 mph - N/A   Clear
2:15 AM 30.2 °F 18.1 °F 23.0 °F 75% 29.86 in 10.0 mi WNW 18.4 mph 24.2 mph N/A   Clear
2:35 AM 28.4 °F 16.6 °F 21.2 °F 74% 29.87 in 10.0 mi WNW 16.1 mph 21.9 mph N/A   Clear
2:55 AM 28.4 °F 15.8 °F 21.2 °F 74% 29.87 in 10.0 mi WNW 18.4 mph - N/A   Clear
3:15 AM 28.4 °F 16.6 °F 21.2 °F 74% 29.87 in 10.0 mi WNW 16.1 mph - N/A   Clear
3:35 AM 28.4 °F 16.6 °F 21.2 °F 74% 29.88 in 10.0 mi WNW 16.1 mph - N/A   Clear
3:55 AM 28.4 °F 17.0 °F 21.2 °F 74% 29.89 in 10.0 mi WNW 15.0 mph - N/A   Clear
4:35 AM 26.6 °F 14.7 °F 21.2 °F 80% 29.91 in 10.0 mi WNW 15.0 mph - N/A   Clear
4:55 AM 26.6 °F 15.2 °F 21.2 °F 80% 29.93 in 10.0 mi WNW 13.8 mph - N/A   Clear
5:15 AM 26.6 °F 16.2 °F 21.2 °F 80% 29.94 in 10.0 mi WNW 11.5 mph - N/A   Clear
5:35 AM 26.6 °F 17.5 °F 19.4 °F 74% 29.94 in 10.0 mi NW 9.2 mph - N/A   Clear
5:55 AM 24.8 °F 15.3 °F 19.4 °F 80% 29.93 in 10.0 mi NW 9.2 mph - N/A   Clear
6:15 AM 24.8 °F 16.1 °F 21.2 °F 86% 29.95 in 10.0 mi WNW 8.1 mph - N/A   Mostly Cloudy
6:35 AM 24.8 °F 14.6 °F 21.2 °F 86% 29.96 in 10.0 mi WNW 10.4 mph - N/A   Mostly Cloudy
6:55 AM 24.8 °F 14.6 °F 19.4 °F 80% 29.96 in 10.0 mi WNW 10.4 mph - N/A   Partly Cloudy
7:15 AM 24.8 °F 17.9 °F 19.4 °F 80% 29.96 in 10.0 mi WNW 5.8 mph - N/A   Clear
7:35 AM 23.0 °F 18.4 °F 17.6 °F 80% 29.97 in 10.0 mi South 3.5 mph - N/A   Scattered Clouds
7:55 AM 21.2 °F 12.6 °F 17.6 °F 86% 29.97 in 10.0 mi West 6.9 mph - N/A   Mostly Cloudy
8:15 AM 24.8 °F 16.1 °F 19.4 °F 80% 29.96 in 10.0 mi WNW 8.1 mph - N/A   Clear
8:35 AM 24.8 °F 16.1 °F 19.4 °F 80% 29.97 in 10.0 mi West 8.1 mph - N/A   Clear
8:55 AM 26.6 °F 17.5 °F 21.2 °F 80% 29.97 in 10.0 mi West 9.2 mph - N/A   Clear
9:15 AM 28.4 °F 20.4 °F 21.2 °F 74% 29.97 in 10.0 mi WNW 8.1 mph - N/A   Partly Cloudy
9:35 AM 28.4 °F 22.2 °F 21.2 °F 74% 29.97 in 10.0 mi WNW 5.8 mph - N/A   Scattered Clouds
9:55 AM 28.4 °F 21.2 °F 21.2 °F 74% 29.97 in 10.0 mi WNW 6.9 mph - N/A   Mostly Cloudy
10:15 AM 28.4 °F 22.2 °F 21.2 °F 74% 29.98 in 10.0 mi West 5.8 mph - N/A   Overcast
10:35 AM 30.2 °F 25.4 °F 23.0 °F 75% 29.98 in 10.0 mi West 4.6 mph - N/A   Scattered Clouds
10:55 AM 30.2 °F 26.7 °F 23.0 °F 75% 29.98 in 10.0 mi WSW 3.5 mph - N/A   Clear
11:15 AM 32.0 °F 25.6 °F 23.0 °F 69% 29.97 in 10.0 mi SSE 6.9 mph - N/A   Clear
11:35 AM 32.0 °F 24.8 °F 21.2 °F 64% 29.97 in 10.0 mi SSW 8.1 mph - N/A   Clear
11:55 AM 32.0 °F 25.6 °F 21.2 °F 64% 29.96 in 10.0 mi SSW 6.9 mph - N/A   Clear
12:15 PM 32.0 °F 24.8 °F 23.0 °F 69% 29.95 in 10.0 mi South 8.1 mph - N/A   Clear
12:35 PM 33.8 °F 27.0 °F 24.8 °F 70% 29.94 in 10.0 mi SSE 8.1 mph - N/A   Clear
12:55 PM 33.8 °F 26.4 °F 23.0 °F 65% 29.93 in 10.0 mi South 9.2 mph - N/A   Clear
1:15 PM 33.8 °F 27.7 °F 24.8 °F 70% 29.93 in 10.0 mi SSE 6.9 mph - N/A   Clear
1:35 PM 33.8 °F 27.0 °F 24.8 °F 70% 29.91 in 10.0 mi SSW 8.1 mph - N/A   Clear
1:55 PM 33.8 °F 27.7 °F 24.8 °F 70% 29.90 in 10.0 mi SSW 6.9 mph - N/A   Clear
2:15 PM 35.6 °F 29.2 °F 24.8 °F 65% 29.89 in 10.0 mi South 8.1 mph - N/A   Mostly Cloudy
2:35 PM 35.6 °F 29.2 °F 26.6 °F 70% 29.89 in 10.0 mi SSE 8.1 mph - N/A   Mostly Cloudy
2:55 PM 35.6 °F 30.7 °F 26.6 °F 70% 29.88 in 10.0 mi SSE 5.8 mph - N/A   Overcast
3:15 PM 35.6 °F 29.9 °F 28.4 °F 75% 29.87 in 10.0 mi SSE 6.9 mph - N/A   Overcast
3:35 PM 35.6 °F 29.2 °F 28.4 °F 75% 29.86 in 10.0 mi SSE 8.1 mph - N/A   Overcast
3:55 PM 35.6 °F 29.9 °F 28.4 °F 75% 29.85 in 10.0 mi SE 6.9 mph - N/A   Overcast
4:15 PM 33.8 °F 27.0 °F 28.4 °F 81% 29.84 in 10.0 mi SE 8.1 mph - N/A   Overcast
4:35 PM 33.8 °F 27.7 °F 28.4 °F 81% 29.83 in 10.0 mi SSE 6.9 mph - N/A   Overcast
4:55 PM 33.8 °F 27.7 °F 28.4 °F 81% 29.83 in 10.0 mi SSE 6.9 mph - N/A   Overcast
5:15 PM 33.8 °F 27.0 °F 26.6 °F 75% 29.82 in 10.0 mi SSE 8.1 mph - N/A   Overcast
5:55 PM 32.0 °F 25.6 °F 26.6 °F 80% 29.81 in 10.0 mi SSE 6.9 mph - N/A   Clear
6:15 PM 32.0 °F 26.4 °F 28.4 °F 87% 29.80 in 10.0 mi SSE 5.8 mph - N/A   Clear
6:35 PM 30.2 °F 23.4 °F 26.6 °F 86% 29.80 in 10.0 mi South 6.9 mph - N/A   Clear
6:55 PM 30.2 °F 25.4 °F 26.6 °F 86% 29.79 in 10.0 mi SSE 4.6 mph - N/A   Clear
7:15 PM 30.2 °F 22.6 °F 26.6 °F 86% 29.79 in 10.0 mi SSE 8.1 mph - N/A   Clear
8:15 PM 30.2 °F 23.4 °F 26.6 °F 86% 29.76 in 10.0 mi SSE 6.9 mph - N/A   Mostly Cloudy
8:35 PM 30.2 °F 24.3 °F 26.6 °F 86% 29.76 in 10.0 mi SSE 5.8 mph - N/A   Overcast
9:15 PM 32.0 °F 26.4 °F 26.6 °F 80% 29.74 in 10.0 mi SSE 5.8 mph - N/A   Overcast
9:35 PM 33.8 °F 29.6 °F 26.6 °F 75% 29.73 in 10.0 mi South 4.6 mph - N/A   Overcast
9:55 PM 32.0 °F 25.6 °F 28.4 °F 87% 29.73 in 10.0 mi South 6.9 mph - N/A   Overcast
10:15 PM 32.0 °F 26.4 °F 28.4 °F 87% 29.72 in 10.0 mi SSE 5.8 mph - N/A   Overcast
10:55 PM 32.0 °F 27.5 °F 28.4 °F 87% 29.71 in 10.0 mi SSE 4.6 mph - N/A   Overcast
11:15 PM 30.2 °F 26.7 °F 28.4 °F 93% 29.70 in 10.0 mi South 3.5 mph - N/A   Overcast
11:35 PM 30.2 °F - 26.6 °F 86% 29.70 in 10.0 mi Calm Calm - N/A   Overcast